sat.trackr.live / text

‹ back to catalog

ONEWEB-0347

NORAD 49280 · 2021-090B

PAYLOAD ACTIVE UNKNOWN

§ Identity

Operator
Country
UK
Launch date
2021-10-14
Launch site
VOSTO
Launch vehicle
Mass (kg)
RCS (m²)

Purposes: comms

External: N2YO · Heavens-Above · Gunter

§ Orbital elements

Epoch: 2026-09-19T23:13:31.264608Z

Period
109.03 min
Inclination
87.9143°
Eccentricity
0.0002103
Mean motion
13.20770435 rev/d
Perigee alt
1,180.2 km
Apogee alt
1,183.4 km
Semi-major
7,559.9 km
B*
-4.1413e-5
RAAN
255.5322°
Arg perigee
81.7588°
Mean anomaly
278.3783°
Rev number
24,355

§ Raw data

ONEWEB-03471 49280U 21090B   26262.96772297 -.00000004  00000+0 -41413-4 0  99942 49280  87.9143 255.5322 0002103  81.7588 278.3783 13.20770435243553

JSON: /api/v1/satellites/49280 · /tle

For live sub-satellite position, see the globe view (requires WebGL).

§ Visibility from observer

Set your observer location to see the next 7 days of passes ≥ 10°. The values pass through the URL so the page stays shareable.

No JS? Fill the form by hand. The geolocation button needs JavaScript.